SL-14 DEB, 47089

Orbit data source: Space-Track

SL-14 DEB, 47089 is space debris in LEO originally from a launch on Thu, 15 Aug 1991 UTC launched from the Plesetsk Missile And Space Complex (PKMTR). Debris objects in space refer to the collection of defunct objects orbiting the Earth. Examples of debris include non-operational satellites, rocket bodies, and fragments generated from explosions, collisions, or faulty payload assembly.

Loading next visibility...
SL-14 DEB details
Identifier
47089, 1991-056DP
Orbit
LEO
Last TLE update2 days ago
Origin
Flag of CISRosgidromet (CIS)
ManufacturerUnknown
MissionSpacecraft
Bus & MotorUnknown
MassUnknown
Launch date (UTC)
1991-08-15 (33 years ago)
Launch vehicleUnknown
Launch site
Plesetsk Missile And Space Complex (PKMTR)
Object type
Payload
Rocket body
Debris
Shape & HBRUnknown
Radar Cross SectionSmall (<0.1 m²)

Expand to show TLE details & history

TLE from 2 days ago
0 SL-14 DEB
1 47089U 91056DP  24360.04746678  .00000162  00000-0  25477-3 0  9993
2 47089  82.6012 120.0037 0186940 197.5384 161.9240 13.38306773202263
Epoch: 2024-12-25T01:08Z
Definitive object data (Epoch: 2024-12-25T01:08:21.129Z)
Latitude-0.00004°
Longitude8.86884°
Altitude1,251.877 km
Speed7.165 km/s
True Right ascension08h 00m 00s
True Declination0° 00' 00"
Sunlit
Object was in full shadow at TLE epoch
Visualization TLE readout
Latitude53.04372°
Longitude177.81702°
Altitude1,067.219 km
Speed7.351 km/s
Apparent Right ascension23h 18m 09s
Apparent Declination19° 47' 03"
Sunlit
Object is in daylight
Visualization observer readout
Local Sidereal Time14:49:42
Azimuth50.256° ENE
Elevation-12.609°
Doppler factor1
Orbital elements
Apogee altitude1,252.84 km
Perigee altitude972.769 km
Semi-major axis7,490.942 km
Eccentricity0.018694
Inclination82.6012°
RAAN120.0037°
Arg. of periapsis197.5384°
True anomaly162.5742°
Mean anomaly161.924°
Eccentric anomaly162.25053°
Mean motion3.34764 °/min
BSTAR0.00025477
Orbital period107.54 mins
Loading maneuver chart data...
Loading historical data...
Loading historical data...
Loading historical data...
Loading historical data...
Loading historical data...
Loading historical data...
Loading historical data...

SL-14 DEB Visibility forecast

Observer location: undefined°, undefined

Span
Click to sort rows by Start time (UTC) header in descending order
Start Az.
Max El. time (UTC)
Max El. Az.
Max El.
End time (UTC)
End Az.
10 mins2024-12-26 19:00:41.603Z12.97° NNE2024-12-26 19:05:41.603Z64.609° ENE27.312°2024-12-26 19:10:41.603Z127.996° SE
10 mins2024-12-26 20:49:41.603Z332.879° NNW2024-12-26 20:54:41.603Z270.837° WNW31.931°2024-12-26 20:59:41.603Z208.995° SW
7 mins2024-12-27 07:07:41.603Z106.992° ESE2024-12-27 07:10:41.603Z80.592° E16.425°2024-12-27 07:14:41.603Z46.365° ENE
13 mins2024-12-27 08:51:41.603Z188.64° SSW2024-12-27 08:58:41.603Z331.677° NNW44.558°2024-12-27 09:04:41.603Z5.757° NNE
7 mins2024-12-27 10:44:41.603Z269.556° W2024-12-27 10:47:41.603Z295.006° NW14.752°2024-12-27 10:51:41.603Z328.432° NNW
|